Time,TemperatureF,DewpointF,PressureIn,WindDirection,WindDirectionDegrees,WindSpeedMPH,WindSpeedGustMPH,Humidity,HourlyPrecipIn,Conditions,Clouds,dailyrainin,SoftwareType,DateUTC
2013-07-06 00:01:00,70.0,64.9,30.07,South,180,0.0,0.0,84,0.00,,,0.00,WUHU21623XXSP,2013-07-06 05:01:00,
2013-07-06 00:06:00,69.8,64.7,30.07,South,180,0.0,0.0,84,0.00,,,0.00,WUHU21623XXSP,2013-07-06 05:06:00,
2013-07-06 00:11:00,69.6,64.7,30.07,South,180,0.0,0.0,84,0.00,,,0.00,WUHU21623XXSP,2013-07-06 05:11:00,
2013-07-06 00:16:00,69.6,64.5,30.06,South,180,0.0,0.0,84,0.00,,,0.00,WUHU21623XXSP,2013-07-06 05:16:00,
2013-07-06 00:21:00,69.4,64.8,30.06,South,180,0.0,0.0,85,0.00,,,0.00,WUHU21623XXSP,2013-07-06 05:21:00,
2013-07-06 00:26:00,69.4,64.7,30.06,South,180,0.0,0.0,85,0.00,,,0.00,WUHU21623XXSP,2013-07-06 05:26:00,
2013-07-06 00:31:00,69.3,64.8,30.06,South,180,0.0,0.0,86,0.00,,,0.00,WUHU21623XXSP,2013-07-06 05:31:00,
2013-07-06 00:36:00,69.3,64.8,30.06,South,180,0.0,0.0,86,0.00,,,0.00,WUHU21623XXSP,2013-07-06 05:36:00,
2013-07-06 00:41:00,69.3,64.8,30.06,South,180,0.0,0.0,86,0.00,,,0.00,WUHU21623XXSP,2013-07-06 05:41:00,
2013-07-06 00:46:00,69.1,64.7,30.06,South,180,0.0,0.0,86,0.00,,,0.00,WUHU21623XXSP,2013-07-06 05:46:00,
2013-07-06 00:51:00,69.1,64.7,30.06,South,180,0.0,0.0,86,0.00,,,0.00,WUHU21623XXSP,2013-07-06 05:51:00,
2013-07-06 00:56:00,68.9,64.5,30.06,South,180,0.0,0.0,86,0.00,,,0.00,WUHU21623XXSP,2013-07-06 05:56:00,
2013-07-06 01:01:00,68.9,64.5,30.06,South,180,0.0,0.0,86,0.00,,,0.00,WUHU21623XXSP,2013-07-06 06:01:00,
2013-07-06 01:06:00,68.7,64.3,30.06,South,180,0.0,0.0,86,0.00,,,0.00,WUHU21623XXSP,2013-07-06 06:06:00,
2013-07-06 01:11:00,68.7,64.3,30.06,South,180,0.0,0.0,86,0.00,,,0.00,WUHU21623XXSP,2013-07-06 06:11:00,
2013-07-06 01:16:00,68.5,64.1,30.06,South,180,0.0,0.0,86,0.00,,,0.00,WUHU21623XXSP,2013-07-06 06:16:00,
2013-07-06 01:21:00,68.5,64.5,30.06,South,180,0.0,0.0,87,0.00,,,0.00,WUHU21623XXSP,2013-07-06 06:21:00,
2013-07-06 01:26:00,68.4,64.3,30.06,South,180,0.0,0.0,87,0.00,,,0.00,WUHU21623XXSP,2013-07-06 06:26:00,
2013-07-06 01:31:00,68.4,64.3,30.06,South,180,0.0,0.0,87,0.00,,,0.00,WUHU21623XXSP,2013-07-06 06:31:00,
2013-07-06 01:36:00,68.4,64.1,30.05,South,180,0.0,0.0,87,0.00,,,0.00,WUHU21623XXSP,2013-07-06 06:36:00,
2013-07-06 01:41:00,68.2,64.1,30.05,South,180,0.0,0.0,87,0.00,,,0.00,WUHU21623XXSP,2013-07-06 06:41:00,
2013-07-06 01:46:00,68.2,64.1,30.06,South,180,0.0,0.0,87,0.00,,,0.00,WUHU21623XXSP,2013-07-06 06:46:00,
2013-07-06 01:51:00,68.2,64.1,30.06,South,180,0.0,0.0,87,0.00,,,0.00,WUHU21623XXSP,2013-07-06 06:51:00,
2013-07-06 01:56:00,68.0,64.0,30.06,South,180,0.0,0.0,87,0.00,,,0.00,WUHU21623XXSP,2013-07-06 06:56:00,
2013-07-06 02:01:00,67.8,63.8,30.06,South,180,0.0,0.0,87,0.00,,,0.00,WUHU21623XXSP,2013-07-06 07:01:00,
2013-07-06 02:07:00,67.8,63.8,30.06,South,180,0.0,0.0,87,0.00,,,0.00,WUHU21623XXSP,2013-07-06 07:07:00,
2013-07-06 02:12:00,67.8,63.8,30.06,South,180,0.0,0.0,87,0.00,,,0.00,WUHU21623XXSP,2013-07-06 07:12:00,
2013-07-06 02:17:00,67.6,63.6,30.06,South,180,0.0,0.0,87,0.00,,,0.00,WUHU21623XXSP,2013-07-06 07:17:00,
2013-07-06 02:21:00,67.6,63.9,30.06,South,180,0.0,0.0,88,0.00,,,0.00,WUHU21623XXSP,2013-07-06 07:21:00,
2013-07-06 02:27:00,67.6,63.9,30.06,South,180,0.0,0.0,88,0.00,,,0.00,WUHU21623XXSP,2013-07-06 07:27:00,
2013-07-06 02:32:00,67.3,63.6,30.06,South,180,0.0,0.0,88,0.00,,,0.00,WUHU21623XXSP,2013-07-06 07:32:00,
2013-07-06 02:37:00,67.3,63.6,30.06,South,180,0.0,0.0,88,0.00,,,0.00,WUHU21623XXSP,2013-07-06 07:37:00,
2013-07-06 02:42:00,67.3,63.6,30.06,South,180,0.0,0.0,88,0.00,,,0.00,WUHU21623XXSP,2013-07-06 07:42:00,
2013-07-06 02:47:00,67.3,63.6,30.06,South,180,0.0,0.0,88,0.00,,,0.00,WUHU21623XXSP,2013-07-06 07:47:00,
2013-07-06 02:52:00,67.3,63.6,30.06,South,180,0.0,0.0,88,0.00,,,0.00,WUHU21623XXSP,2013-07-06 07:52:00,
2013-07-06 02:57:00,67.1,63.4,30.06,South,180,0.0,0.0,88,0.00,,,0.00,WUHU21623XXSP,2013-07-06 07:57:00,
2013-07-06 03:02:00,67.3,63.4,30.06,South,180,0.0,0.0,88,0.00,,,0.00,WUHU21623XXSP,2013-07-06 08:02:00,
2013-07-06 03:07:00,67.3,63.6,30.06,South,180,0.0,0.0,88,0.00,,,0.00,WUHU21623XXSP,2013-07-06 08:07:00,
2013-07-06 03:12:00,67.3,63.6,30.06,South,180,0.0,0.0,88,0.00,,,0.00,WUHU21623XXSP,2013-07-06 08:12:00,
2013-07-06 03:17:00,67.3,63.6,30.06,South,180,0.0,0.0,88,0.00,,,0.00,WUHU21623XXSP,2013-07-06 08:17:00,
2013-07-06 03:22:00,67.3,63.6,30.06,South,180,0.0,0.0,88,0.00,,,0.00,WUHU21623XXSP,2013-07-06 08:22:00,
2013-07-06 03:27:00,67.3,63.6,30.06,South,180,0.0,0.0,88,0.00,,,0.00,WUHU21623XXSP,2013-07-06 08:27:00,
2013-07-06 03:32:00,67.1,63.4,30.06,South,180,0.0,0.0,88,0.00,,,0.00,WUHU21623XXSP,2013-07-06 08:32:00,
2013-07-06 03:37:00,67.1,63.4,30.06,South,180,0.0,0.0,88,0.00,,,0.00,WUHU21623XXSP,2013-07-06 08:37:00,
2013-07-06 03:42:00,67.1,63.4,30.06,South,180,0.0,0.0,88,0.00,,,0.00,WUHU21623XXSP,2013-07-06 08:42:00,
2013-07-06 03:47:00,66.9,62.9,30.06,South,180,0.0,0.0,87,0.00,,,0.00,WUHU21623XXSP,2013-07-06 08:47:00,
2013-07-06 03:52:00,66.9,62.9,30.06,South,180,0.0,0.0,87,0.00,,,0.00,WUHU21623XXSP,2013-07-06 08:52:00,
2013-07-06 03:57:00,66.9,62.9,30.06,South,180,0.0,0.0,87,0.00,,,0.00,WUHU21623XXSP,2013-07-06 08:57:00,
2013-07-06 04:02:00,66.9,62.9,30.06,South,180,0.0,0.0,87,0.00,,,0.00,WUHU21623XXSP,2013-07-06 09:02:00,
2013-07-06 04:07:00,66.9,62.9,30.06,South,180,0.0,0.0,87,0.00,,,0.00,WUHU21623XXSP,2013-07-06 09:07:00,
2013-07-06 04:12:00,66.9,62.9,30.06,South,180,0.0,0.0,87,0.00,,,0.00,WUHU21623XXSP,2013-07-06 09:12:00,
2013-07-06 04:17:00,66.9,62.9,30.06,South,180,0.0,0.0,87,0.00,,,0.00,WUHU21623XXSP,2013-07-06 09:17:00,
2013-07-06 04:22:00,66.9,62.9,30.06,South,180,0.0,0.0,87,0.00,,,0.00,WUHU21623XXSP,2013-07-06 09:22:00,
2013-07-06 04:27:00,66.9,62.9,30.06,South,180,0.0,0.0,86,0.00,,,0.00,WUHU21623XXSP,2013-07-06 09:27:00,
2013-07-06 04:32:00,66.9,62.6,30.06,South,180,0.0,0.0,86,0.00,,,0.00,WUHU21623XXSP,2013-07-06 09:32:00,
2013-07-06 04:37:00,66.7,62.4,30.06,South,180,0.0,0.0,86,0.00,,,0.00,WUHU21623XXSP,2013-07-06 09:37:00,
2013-07-06 04:42:00,66.7,62.4,30.06,South,180,0.0,0.0,86,0.00,,,0.00,WUHU21623XXSP,2013-07-06 09:42:00,
2013-07-06 04:47:00,66.7,62.4,30.06,South,180,0.0,0.0,86,0.00,,,0.00,WUHU21623XXSP,2013-07-06 09:47:00,
2013-07-06 04:52:00,66.6,62.2,30.06,South,180,0.0,0.0,86,0.00,,,0.00,WUHU21623XXSP,2013-07-06 09:52:00,
2013-07-06 04:57:00,66.6,62.2,30.06,South,180,0.0,0.0,86,0.00,,,0.00,WUHU21623XXSP,2013-07-06 09:57:00,
2013-07-06 05:02:00,66.6,62.2,30.06,South,180,0.0,0.0,86,0.00,,,0.00,WUHU21623XXSP,2013-07-06 10:02:00,
2013-07-06 05:07:00,66.6,62.2,30.06,South,180,0.0,0.0,86,0.00,,,0.00,WUHU21623XXSP,2013-07-06 10:07:00,
2013-07-06 05:12:00,66.6,62.2,30.06,South,180,0.0,0.0,86,0.00,,,0.00,WUHU21623XXSP,2013-07-06 10:12:00,
2013-07-06 05:17:00,66.6,62.2,30.06,South,180,0.0,0.0,86,0.00,,,0.00,WUHU21623XXSP,2013-07-06 10:17:00,
2013-07-06 05:22:00,66.6,61.9,30.06,South,180,0.0,0.0,85,0.00,,,0.00,WUHU21623XXSP,2013-07-06 10:22:00,
2013-07-06 05:27:00,66.4,61.7,30.06,South,180,0.0,0.0,85,0.00,,,0.00,WUHU21623XXSP,2013-07-06 10:27:00,
2013-07-06 05:32:00,66.4,61.7,30.07,South,180,0.0,0.0,85,0.00,,,0.00,WUHU21623XXSP,2013-07-06 10:32:00,
2013-07-06 05:37:00,66.4,61.7,30.07,South,180,0.0,0.0,85,0.00,,,0.00,WUHU21623XXSP,2013-07-06 10:37:00,
2013-07-06 05:42:00,66.4,61.7,30.06,South,180,0.0,0.0,85,0.00,,,0.00,WUHU21623XXSP,2013-07-06 10:42:00,
2013-07-06 05:47:00,66.2,61.7,30.07,South,180,0.0,0.0,85,0.00,,,0.00,WUHU21623XXSP,2013-07-06 10:47:00,
2013-07-06 05:52:00,66.4,61.7,30.06,South,180,0.0,0.0,85,0.00,,,0.00,WUHU21623XXSP,2013-07-06 10:52:00,
2013-07-06 05:57:00,66.4,61.4,30.07,South,180,0.0,0.0,84,0.00,,,0.00,WUHU21623XXSP,2013-07-06 10:57:00,
2013-07-06 06:02:00,66.4,61.4,30.07,South,180,0.0,0.0,84,0.00,,,0.00,WUHU21623XXSP,2013-07-06 11:02:00,
2013-07-06 06:07:00,66.6,61.6,30.07,South,180,0.0,0.0,84,0.00,,,0.00,WUHU21623XXSP,2013-07-06 11:07:00,
2013-07-06 06:12:00,66.7,61.7,30.07,South,180,0.0,0.0,83,0.00,,,0.00,WUHU21623XXSP,2013-07-06 11:12:00,
2013-07-06 06:17:00,66.9,61.6,30.07,South,180,0.0,0.0,83,0.00,,,0.00,WUHU21623XXSP,2013-07-06 11:17:00,
2013-07-06 06:22:00,66.9,61.6,30.07,South,180,0.0,0.0,83,0.00,,,0.00,WUHU21623XXSP,2013-07-06 11:22:00,
2013-07-06 06:27:00,67.3,62.0,30.07,South,180,0.0,0.0,83,0.00,,,0.00,WUHU21623XXSP,2013-07-06 11:27:00,
2013-07-06 06:32:00,67.3,61.6,30.07,South,180,0.0,0.0,82,0.00,,,0.00,WUHU21623XXSP,2013-07-06 11:32:00,
2013-07-06 06:37:00,67.3,61.6,30.07,South,180,0.0,0.0,82,0.00,,,0.00,WUHU21623XXSP,2013-07-06 11:37:00,
2013-07-06 06:42:00,67.3,61.6,30.07,South,180,0.0,0.0,82,0.00,,,0.00,WUHU21623XXSP,2013-07-06 11:42:00,
2013-07-06 06:47:00,67.6,62.0,30.08,South,180,0.0,0.0,82,0.00,,,0.00,WUHU21623XXSP,2013-07-06 11:47:00,
2013-07-06 06:52:00,67.6,62.0,30.08,South,180,0.0,0.0,82,0.00,,,0.00,WUHU21623XXSP,2013-07-06 11:52:00,
2013-07-06 06:57:00,67.8,62.2,30.08,South,180,0.0,0.0,82,0.00,,,0.00,WUHU21623XXSP,2013-07-06 11:57:00,
2013-07-06 07:02:00,68.2,62.5,30.08,South,180,0.0,0.0,82,0.00,,,0.00,WUHU21623XXSP,2013-07-06 12:02:00,
2013-07-06 07:07:00,68.2,62.5,30.08,South,180,0.0,0.0,82,0.00,,,0.00,WUHU21623XXSP,2013-07-06 12:07:00,
2013-07-06 07:12:00,68.5,62.8,30.08,South,180,0.0,0.0,82,0.00,,,0.00,WUHU21623XXSP,2013-07-06 12:12:00,
2013-07-06 07:17:00,68.5,62.8,30.08,South,180,0.0,0.0,82,0.00,,,0.00,WUHU21623XXSP,2013-07-06 12:17:00,
2013-07-06 07:22:00,68.7,63.0,30.08,South,180,0.0,0.0,82,0.00,,,0.00,WUHU21623XXSP,2013-07-06 12:22:00,
2013-07-06 07:27:00,69.3,63.8,30.08,South,180,0.0,0.0,83,0.00,,,0.00,WUHU21623XXSP,2013-07-06 12:27:00,
2013-07-06 07:33:00,69.6,64.2,30.08,South,180,0.0,0.0,83,0.00,,,0.00,WUHU21623XXSP,2013-07-06 12:33:00,
2013-07-06 07:38:00,69.6,64.5,30.08,South,180,0.0,0.0,84,0.00,,,0.00,WUHU21623XXSP,2013-07-06 12:38:00,
2013-07-06 07:43:00,70.5,65.0,30.08,South,180,0.0,0.0,84,0.00,,,0.00,WUHU21623XXSP,2013-07-06 12:43:00,
2013-07-06 07:48:00,71.2,66.5,30.08,South,180,0.0,0.0,85,0.00,,,0.00,WUHU21623XXSP,2013-07-06 12:48:00,
2013-07-06 07:53:00,71.8,67.0,30.08,South,180,1.1,1.1,85,0.00,,,0.00,WUHU21623XXSP,2013-07-06 12:53:00,
2013-07-06 07:58:00,72.3,68.2,30.08,South,180,0.0,1.1,87,0.00,,,0.00,WUHU21623XXSP,2013-07-06 12:58:00,
2013-07-06 08:03:00,72.7,68.6,30.08,South,180,0.0,0.0,87,0.00,,,0.00,WUHU21623XXSP,2013-07-06 13:03:00,
2013-07-06 08:08:00,73.2,69.1,30.08,South,180,0.0,0.0,87,0.00,,,0.00,WUHU21623XXSP,2013-07-06 13:08:00,
2013-07-06 08:13:00,73.9,69.3,30.08,South,180,0.0,0.0,87,0.00,,,0.00,WUHU21623XXSP,2013-07-06 13:13:00,
2013-07-06 08:18:00,74.5,70.4,30.08,South,180,0.0,0.0,87,0.00,,,0.00,WUHU21623XXSP,2013-07-06 13:18:00,
2013-07-06 08:23:00,75.7,71.3,30.08,South,180,0.0,0.0,86,0.00,,,0.00,WUHU21623XXSP,2013-07-06 13:23:00,
2013-07-06 08:28:00,76.6,71.8,30.08,South,180,0.0,0.0,85,0.00,,,0.00,WUHU21623XXSP,2013-07-06 13:28:00,
2013-07-06 08:33:00,77.2,72.0,30.08,South,180,0.0,0.0,84,0.00,,,0.00,WUHU21623XXSP,2013-07-06 13:33:00,
2013-07-06 08:38:00,77.7,71.1,30.08,South,180,0.0,0.0,80,0.00,,,0.00,WUHU21623XXSP,2013-07-06 13:38:00,
2013-07-06 08:43:00,78.4,71.4,30.08,South,180,0.0,0.0,79,0.00,,,0.00,WUHU21623XXSP,2013-07-06 13:43:00,
2013-07-06 08:48:00,78.6,71.2,30.08,South,180,0.0,0.0,78,0.00,,,0.00,WUHU21623XXSP,2013-07-06 13:48:00,
2013-07-06 08:53:00,78.4,71.0,30.08,SSE,157,0.0,0.0,78,0.00,,,0.00,WUHU21623XXSP,2013-07-06 13:53:00,
2013-07-06 08:58:00,78.6,71.2,30.08,SSE,157,5.1,5.1,78,0.00,,,0.00,WUHU21623XXSP,2013-07-06 13:58:00,
2013-07-06 09:03:00,79.0,71.1,30.08,SSE,157,0.0,5.1,77,0.00,,,0.00,WUHU21623XXSP,2013-07-06 14:03:00,
2013-07-06 09:08:00,79.5,71.3,30.07,SSE,157,0.0,0.0,76,0.00,,,0.00,WUHU21623XXSP,2013-07-06 14:08:00,
2013-07-06 09:13:00,79.7,71.1,30.07,SSE,157,0.0,0.0,75,0.00,,,0.00,WUHU21623XXSP,2013-07-06 14:13:00,
2013-07-06 09:18:00,80.2,70.8,30.07,SSE,157,0.0,0.0,73,0.00,,,0.00,WUHU21623XXSP,2013-07-06 14:18:00,
2013-07-06 09:23:00,80.4,71.0,30.07,SSE,157,0.0,0.0,73,0.00,,,0.00,WUHU21623XXSP,2013-07-06 14:23:00,
2013-07-06 09:28:00,80.8,70.9,30.06,SSE,157,0.0,0.0,72,0.00,,,0.00,WUHU21623XXSP,2013-07-06 14:28:00,
2013-07-06 09:33:00,81.5,70.8,30.06,SSE,157,0.0,0.0,70,0.00,,,0.00,WUHU21623XXSP,2013-07-06 14:33:00,
2013-07-06 09:38:00,81.5,71.0,30.06,SSE,157,0.0,0.0,69,0.00,,,0.00,WUHU21623XXSP,2013-07-06 14:38:00,
2013-07-06 09:43:00,81.3,70.2,30.06,SSE,157,0.0,0.0,69,0.00,,,0.00,WUHU21623XXSP,2013-07-06 14:43:00,
2013-07-06 09:48:00,81.7,70.5,30.06,SSE,157,0.7,0.7,69,0.00,,,0.00,WUHU21623XXSP,2013-07-06 14:48:00,
2013-07-06 09:54:00,82.0,70.8,30.07,SSE,157,0.0,0.7,69,0.00,,,0.00,WUHU21623XXSP,2013-07-06 14:54:00,
2013-07-06 09:59:00,82.0,70.8,30.06,SSE,157,0.0,0.0,69,0.00,,,0.00,WUHU21623XXSP,2013-07-06 14:59:00,
2013-07-06 10:04:00,82.6,70.9,30.06,SSE,157,0.0,0.0,68,0.00,,,0.00,WUHU21623XXSP,2013-07-06 15:04:00,
2013-07-06 10:09:00,82.2,70.1,30.06,South,180,0.0,0.0,68,0.00,,,0.00,WUHU21623XXSP,2013-07-06 15:09:00,
2013-07-06 10:14:00,81.7,70.5,30.06,South,180,0.0,0.0,69,0.00,,,0.00,WUHU21623XXSP,2013-07-06 15:14:00,
2013-07-06 10:19:00,81.7,70.1,30.06,SSW,202,0.0,0.0,68,0.00,,,0.00,WUHU21623XXSP,2013-07-06 15:19:00,
2013-07-06 10:24:00,81.7,70.1,30.06,SW,225,0.0,0.0,68,0.00,,,0.00,WUHU21623XXSP,2013-07-06 15:24:00,
2013-07-06 10:29:00,82.0,69.5,30.06,SW,225,0.0,0.0,66,0.00,,,0.00,WUHU21623XXSP,2013-07-06 15:29:00,
2013-07-06 10:34:00,82.4,69.8,30.06,SW,225,0.0,0.0,66,0.00,,,0.00,WUHU21623XXSP,2013-07-06 15:34:00,
2013-07-06 10:39:00,82.9,69.4,30.06,SW,225,0.0,0.0,64,0.00,,,0.00,WUHU21623XXSP,2013-07-06 15:39:00,
2013-07-06 10:44:00,82.9,69.9,30.07,SW,225,0.0,0.0,65,0.00,,,0.00,WUHU21623XXSP,2013-07-06 15:44:00,
2013-07-06 10:49:00,83.5,70.0,30.07,SW,225,0.0,0.0,64,0.00,,,0.00,WUHU21623XXSP,2013-07-06 15:49:00,
2013-07-06 10:54:00,83.8,70.0,30.07,SSW,202,0.0,0.0,64,0.00,,,0.00,WUHU21623XXSP,2013-07-06 15:54:00,
2013-07-06 10:59:00,83.8,70.3,30.07,South,180,0.0,1.6,64,0.00,,,0.00,WUHU21623XXSP,2013-07-06 15:59:00,
2013-07-06 11:04:00,83.3,69.5,30.06,South,180,0.0,1.6,63,0.00,,,0.00,WUHU21623XXSP,2013-07-06 16:04:00,
2013-07-06 11:09:00,83.3,68.9,30.06,South,180,0.0,0.0,63,0.00,,,0.00,WUHU21623XXSP,2013-07-06 16:09:00,
2013-07-06 11:14:00,82.9,69.3,30.06,South,180,0.0,0.0,63,0.00,,,0.00,WUHU21623XXSP,2013-07-06 16:14:00,
2013-07-06 11:19:00,82.2,69.5,30.06,South,180,1.8,1.8,65,0.00,,,0.00,WUHU21623XXSP,2013-07-06 16:19:00,
2013-07-06 11:25:00,82.2,69.2,30.06,South,180,0.0,1.8,65,0.00,,,0.00,WUHU21623XXSP,2013-07-06 16:25:00,
2013-07-06 11:30:00,82.0,69.0,30.06,South,180,0.0,2.5,65,0.00,,,0.00,WUHU21623XXSP,2013-07-06 16:30:00,
2013-07-06 11:35:00,82.2,69.6,30.06,South,180,0.0,2.5,66,0.00,,,0.00,WUHU21623XXSP,2013-07-06 16:35:00,
2013-07-06 11:41:00,82.6,69.5,30.06,South,180,0.9,0.9,65,0.00,,,0.00,WUHU21623XXSP,2013-07-06 16:41:00,
2013-07-06 11:46:00,82.0,69.5,30.06,South,180,0.0,0.9,65,0.00,,,0.00,WUHU21623XXSP,2013-07-06 16:46:00,
2013-07-06 11:51:00,82.2,69.2,30.06,SSE,157,0.0,0.0,65,0.00,,,0.00,WUHU21623XXSP,2013-07-06 16:51:00,
2013-07-06 11:57:00,82.6,70.0,30.06,SSE,157,0.0,0.0,66,0.00,,,0.00,WUHU21623XXSP,2013-07-06 16:57:00,
2013-07-06 12:02:00,82.6,69.5,30.05,SSE,157,0.0,4.7,65,0.00,,,0.00,WUHU21623XXSP,2013-07-06 17:02:00,
2013-07-06 12:07:00,82.6,69.5,30.06,SSE,157,0.0,4.7,65,0.00,,,0.00,WUHU21623XXSP,2013-07-06 17:07:00,
2013-07-06 12:12:00,82.9,69.4,30.05,SSE,157,7.4,7.4,64,0.00,,,0.00,WUHU21623XXSP,2013-07-06 17:12:00,
2013-07-06 12:18:00,82.9,69.0,30.05,SSE,157,0.0,7.4,63,0.00,,,0.00,WUHU21623XXSP,2013-07-06 17:18:00,
2013-07-06 12:23:00,82.9,69.4,30.05,SSE,157,0.0,2.5,64,0.00,,,0.00,WUHU21623XXSP,2013-07-06 17:23:00,
2013-07-06 12:29:00,82.9,69.4,30.05,SSE,157,0.0,0.0,64,0.00,,,0.00,WUHU21623XXSP,2013-07-06 17:29:00,
2013-07-06 12:34:00,82.2,68.7,30.05,SSE,157,2.5,5.4,64,0.00,,,0.00,WUHU21623XXSP,2013-07-06 17:34:00,
2013-07-06 12:40:00,82.2,68.7,30.05,South,180,0.0,5.4,64,0.00,,,0.00,WUHU21623XXSP,2013-07-06 17:40:00,
2013-07-06 12:45:00,82.2,68.7,30.05,South,180,2.5,5.4,64,0.00,,,0.00,WUHU21623XXSP,2013-07-06 17:45:00,
2013-07-06 12:50:00,82.4,68.9,30.05,SSE,157,0.0,2.5,64,0.00,,,0.00,WUHU21623XXSP,2013-07-06 17:50:00,
2013-07-06 12:55:00,82.6,68.6,30.05,South,180,0.0,0.0,63,0.00,,,0.00,WUHU21623XXSP,2013-07-06 17:55:00,
2013-07-06 13:00:00,82.6,68.6,30.05,SSW,202,0.0,0.0,63,0.00,,,0.00,WUHU21623XXSP,2013-07-06 18:00:00,
2013-07-06 13:06:00,82.6,68.6,30.05,SSW,202,0.0,0.0,63,0.00,,,0.00,WUHU21623XXSP,2013-07-06 18:06:00,
2013-07-06 13:11:00,82.2,68.7,30.05,SSE,157,0.0,3.6,64,0.00,,,0.00,WUHU21623XXSP,2013-07-06 18:11:00,
2013-07-06 13:16:00,82.0,69.0,30.04,South,180,0.0,3.6,65,0.00,,,0.00,WUHU21623XXSP,2013-07-06 18:16:00,
2013-07-06 13:21:00,81.9,68.9,30.04,South,180,0.0,0.0,65,0.00,,,0.00,WUHU21623XXSP,2013-07-06 18:21:00,
2013-07-06 13:26:00,82.2,69.2,30.04,South,180,0.0,0.0,65,0.00,,,0.00,WUHU21623XXSP,2013-07-06 18:26:00,
2013-07-06 13:32:00,82.4,69.3,30.04,South,180,0.0,0.0,65,0.00,,,0.00,WUHU21623XXSP,2013-07-06 18:32:00,
2013-07-06 13:37:00,82.2,68.7,30.04,SSE,157,1.3,1.3,64,0.00,,,0.00,WUHU21623XXSP,2013-07-06 18:37:00,
2013-07-06 13:42:00,82.2,68.7,30.04,South,180,0.0,7.4,64,0.00,,,0.00,WUHU21623XXSP,2013-07-06 18:42:00,
2013-07-06 13:48:00,82.2,69.2,30.04,SSW,202,0.0,7.4,65,0.00,,,0.00,WUHU21623XXSP,2013-07-06 18:48:00,
2013-07-06 13:54:00,82.6,69.2,30.04,SSW,202,0.0,0.0,65,0.00,,,0.00,WUHU21623XXSP,2013-07-06 18:54:00,
2013-07-06 13:59:00,82.9,69.4,30.04,SSW,202,0.0,2.9,64,0.00,,,0.00,WUHU21623XXSP,2013-07-06 18:59:00,
2013-07-06 14:05:00,82.9,69.0,30.03,SSE,157,0.0,2.9,63,0.00,,,0.00,WUHU21623XXSP,2013-07-06 19:05:00,
2013-07-06 14:10:00,82.9,69.4,30.04,SSE,157,0.0,0.0,63,0.00,,,0.00,WUHU21623XXSP,2013-07-06 19:10:00,
2013-07-06 14:15:00,83.1,69.6,30.04,SW,225,0.0,2.5,64,0.00,,,0.00,WUHU21623XXSP,2013-07-06 19:15:00,
2013-07-06 14:20:00,83.1,69.2,30.03,SSW,202,2.0,2.5,63,0.00,,,0.00,WUHU21623XXSP,2013-07-06 19:20:00,
2013-07-06 14:25:00,82.9,69.0,30.04,South,180,0.0,2.5,63,0.00,,,0.00,WUHU21623XXSP,2013-07-06 19:25:00,
2013-07-06 14:30:00,82.9,69.0,30.04,South,180,4.5,4.5,63,0.00,,,0.00,WUHU21623XXSP,2013-07-06 19:30:00,
2013-07-06 14:36:00,82.6,68.6,30.04,South,180,0.0,4.5,63,0.00,,,0.00,WUHU21623XXSP,2013-07-06 19:36:00,
2013-07-06 14:41:00,82.2,68.7,30.03,SSW,202,0.0,0.0,64,0.00,,,0.00,WUHU21623XXSP,2013-07-06 19:41:00,
2013-07-06 14:46:00,82.2,68.7,30.04,SSW,202,2.5,2.5,64,0.00,,,0.00,WUHU21623XXSP,2013-07-06 19:46:00,
2013-07-06 14:52:00,82.0,68.6,30.03,South,180,0.0,2.5,64,0.00,,,0.00,WUHU21623XXSP,2013-07-06 19:52:00,
2013-07-06 14:57:00,82.0,68.6,30.03,South,180,2.2,2.2,64,0.00,,,0.00,WUHU21623XXSP,2013-07-06 19:57:00,
2013-07-06 15:03:00,81.5,68.7,30.04,SSE,157,2.0,6.7,65,0.00,,,0.00,WUHU21623XXSP,2013-07-06 20:03:00,
2013-07-06 15:08:00,81.1,68.7,30.03,SSE,157,4.7,4.7,66,0.00,,,0.00,WUHU21623XXSP,2013-07-06 20:08:00,
2013-07-06 15:14:00,80.8,68.3,30.03,SSE,157,3.8,4.7,66,0.00,,,0.00,WUHU21623XXSP,2013-07-06 20:14:00,
2013-07-06 15:19:00,80.4,68.0,30.03,SSE,157,6.7,6.7,66,0.00,,,0.00,WUHU21623XXSP,2013-07-06 20:19:00,
2013-07-06 15:24:00,80.2,67.8,30.03,SSE,157,8.1,8.1,66,0.00,,,0.00,WUHU21623XXSP,2013-07-06 20:24:00,
2013-07-06 15:30:00,79.9,67.8,30.04,SSE,157,0.0,8.1,66,0.00,,,0.00,WUHU21623XXSP,2013-07-06 20:30:00,
2013-07-06 15:35:00,80.1,67.7,30.03,SSE,157,0.0,8.1,66,0.00,,,0.00,WUHU21623XXSP,2013-07-06 20:35:00,
2013-07-06 15:40:00,80.2,68.3,30.03,SSE,157,7.8,7.8,67,0.00,,,0.00,WUHU21623XXSP,2013-07-06 20:40:00,
2013-07-06 15:45:00,80.4,68.5,30.03,SSE,157,0.0,7.8,67,0.00,,,0.00,WUHU21623XXSP,2013-07-06 20:45:00,
2013-07-06 15:50:00,80.4,68.8,30.03,SSE,157,2.2,2.2,67,0.00,,,0.00,WUHU21623XXSP,2013-07-06 20:50:00,
2013-07-06 15:56:00,81.0,68.5,30.03,South,180,2.9,2.9,66,0.00,,,0.00,WUHU21623XXSP,2013-07-06 20:56:00,
2013-07-06 16:01:00,81.3,68.4,30.03,SSW,202,0.0,2.9,65,0.00,,,0.00,WUHU21623XXSP,2013-07-06 21:01:00,
2013-07-06 16:07:00,81.7,68.7,30.03,South,180,0.0,0.0,65,0.00,,,0.00,WUHU21623XXSP,2013-07-06 21:07:00,
2013-07-06 16:12:00,81.7,69.2,30.02,SSE,157,0.0,0.0,66,0.00,,,0.00,WUHU21623XXSP,2013-07-06 21:12:00,
2013-07-06 16:18:00,81.7,68.7,30.02,SSE,157,0.0,0.0,65,0.00,,,0.00,WUHU21623XXSP,2013-07-06 21:18:00,
2013-07-06 16:23:00,82.2,68.7,30.02,SSE,157,0.0,0.0,64,0.00,,,0.00,WUHU21623XXSP,2013-07-06 21:23:00,
2013-07-06 16:28:00,82.2,68.7,30.02,SSE,157,0.0,0.0,64,0.00,,,0.00,WUHU21623XXSP,2013-07-06 21:28:00,
2013-07-06 16:33:00,82.2,68.7,30.02,SSE,157,0.0,0.0,64,0.00,,,0.00,WUHU21623XXSP,2013-07-06 21:33:00,
2013-07-06 16:38:00,82.9,69.1,30.02,SSE,157,0.0,0.0,63,0.00,,,0.00,WUHU21623XXSP,2013-07-06 21:38:00,
2013-07-06 16:44:00,83.1,69.2,30.01,SSE,157,6.9,6.9,63,0.00,,,0.00,WUHU21623XXSP,2013-07-06 21:44:00,
2013-07-06 16:49:00,82.9,69.2,30.01,South,180,0.0,6.9,63,0.00,,,0.00,WUHU21623XXSP,2013-07-06 21:49:00,
2013-07-06 16:55:00,82.9,68.5,30.01,South,180,2.9,6.9,62,0.00,,,0.00,WUHU21623XXSP,2013-07-06 21:55:00,
2013-07-06 17:00:00,82.6,68.2,30.01,SSW,202,0.0,2.9,63,0.00,,,0.00,WUHU21623XXSP,2013-07-06 22:00:00,
2013-07-06 17:06:00,82.2,68.3,30.01,South,180,0.0,0.0,63,0.00,,,0.00,WUHU21623XXSP,2013-07-06 22:06:00,
2013-07-06 17:11:00,81.3,67.5,30.01,SSW,202,0.0,7.2,63,0.00,,,0.00,WUHU21623XXSP,2013-07-06 22:11:00,
2013-07-06 17:16:00,80.8,67.0,30.01,South,180,6.3,6.3,63,0.00,,,0.00,WUHU21623XXSP,2013-07-06 22:16:00,
2013-07-06 17:21:00,80.8,67.0,30.01,SSE,157,0.0,6.3,63,0.00,,,0.00,WUHU21623XXSP,2013-07-06 22:21:00,
2013-07-06 17:26:00,80.2,67.4,30.01,South,180,0.0,1.6,65,0.00,,,0.00,WUHU21623XXSP,2013-07-06 22:26:00,
2013-07-06 17:31:00,79.9,67.0,30.01,South,180,0.7,6.7,65,0.00,,,0.00,WUHU21623XXSP,2013-07-06 22:31:00,
2013-07-06 17:37:00,79.7,67.3,30.01,SSE,157,7.6,7.6,66,0.00,,,0.00,WUHU21623XXSP,2013-07-06 22:37:00,
2013-07-06 17:42:00,79.5,67.1,30.01,SSE,157,0.0,7.6,66,0.00,,,0.00,WUHU21623XXSP,2013-07-06 22:42:00,
2013-07-06 17:48:00,79.5,67.1,30.01,South,180,6.9,6.9,66,0.00,,,0.00,WUHU21623XXSP,2013-07-06 22:48:00,
2013-07-06 17:53:00,79.3,67.4,30.01,South,180,3.6,6.9,67,0.00,,,0.00,WUHU21623XXSP,2013-07-06 22:53:00,
2013-07-06 17:58:00,79.3,67.4,30.01,South,180,6.0,6.3,68,0.00,,,0.00,WUHU21623XXSP,2013-07-06 22:58:00,
2013-07-06 18:03:00,79.3,67.8,30.01,South,180,0.0,6.0,68,0.00,,,0.00,WUHU21623XXSP,2013-07-06 23:03:00,
2013-07-06 18:08:00,79.3,68.3,30.00,South,180,5.1,5.1,69,0.00,,,0.00,WUHU21623XXSP,2013-07-06 23:08:00,
2013-07-06 18:14:00,79.3,67.8,30.00,South,180,0.0,5.1,68,0.00,,,0.00,WUHU21623XXSP,2013-07-06 23:14:00,
2013-07-06 18:19:00,79.5,68.3,30.00,SSW,202,0.0,0.0,69,0.00,,,0.00,WUHU21623XXSP,2013-07-06 23:19:00,
2013-07-06 18:24:00,79.5,68.5,30.00,South,180,3.1,3.1,69,0.00,,,0.00,WUHU21623XXSP,2013-07-06 23:24:00,
2013-07-06 18:30:00,79.5,68.5,30.00,SSE,157,4.9,4.9,69,0.00,,,0.00,WUHU21623XXSP,2013-07-06 23:30:00,
2013-07-06 18:34:00,79.7,68.6,29.99,SSE,157,0.0,4.9,69,0.00,,,0.00,WUHU21623XXSP,2013-07-06 23:34:00,
2013-07-06 18:40:00,79.7,68.6,30.00,SSE,157,0.0,4.7,69,0.00,,,0.00,WUHU21623XXSP,2013-07-06 23:40:00,
2013-07-06 18:45:00,79.5,68.5,29.99,South,180,0.0,5.4,69,0.00,,,0.00,WUHU21623XXSP,2013-07-06 23:45:00,
2013-07-06 18:50:00,79.5,68.5,29.99,South,180,0.0,5.4,69,0.00,,,0.00,WUHU21623XXSP,2013-07-06 23:50:00,
2013-07-06 18:55:00,79.3,68.3,29.99,South,180,0.4,0.4,69,0.00,,,0.00,WUHU21623XXSP,2013-07-06 23:55:00,
2013-07-06 19:01:00,79.5,68.7,29.99,SSW,202,0.0,1.8,69,0.00,,,0.00,WUHU21623XXSP,2013-07-07 00:01:00,
2013-07-06 19:06:00,79.3,68.3,29.99,South,180,4.9,4.9,69,0.00,,,0.00,WUHU21623XXSP,2013-07-07 00:06:00,
2013-07-06 19:11:00,79.2,68.1,30.00,SSW,202,0.0,4.9,69,0.00,,,0.00,WUHU21623XXSP,2013-07-07 00:11:00,
2013-07-06 19:17:00,78.6,68.4,29.99,South,180,3.4,3.4,70,0.00,,,0.00,WUHU21623XXSP,2013-07-07 00:17:00,
2013-07-06 19:22:00,78.6,68.0,29.99,SSE,157,7.4,7.4,70,0.00,,,0.00,WUHU21623XXSP,2013-07-07 00:22:00,
2013-07-06 19:28:00,77.9,67.7,29.99,South,180,0.0,7.4,71,0.00,,,0.00,WUHU21623XXSP,2013-07-07 00:28:00,
2013-07-06 19:33:00,77.5,67.4,29.99,SSW,202,0.0,2.9,71,0.00,,,0.00,WUHU21623XXSP,2013-07-07 00:33:00,
2013-07-06 19:38:00,77.2,67.1,30.00,SSW,202,1.8,5.6,71,0.00,,,0.00,WUHU21623XXSP,2013-07-07 00:38:00,
2013-07-06 19:43:00,76.8,66.4,30.00,South,180,3.8,5.6,70,0.00,,,0.00,WUHU21623XXSP,2013-07-07 00:43:00,
2013-07-06 19:48:00,76.6,66.8,30.00,SW,225,2.9,3.8,71,0.00,,,0.00,WUHU21623XXSP,2013-07-07 00:48:00,
2013-07-06 19:54:00,76.3,66.6,30.00,SW,225,0.0,2.9,72,0.00,,,0.00,WUHU21623XXSP,2013-07-07 00:54:00,
2013-07-06 19:59:00,76.3,66.6,30.00,SSW,202,0.0,2.9,72,0.00,,,0.00,WUHU21623XXSP,2013-07-07 00:59:00,
2013-07-06 20:04:00,76.1,67.0,30.00,SSW,202,0.0,0.0,73,0.00,,,0.00,WUHU21623XXSP,2013-07-07 01:04:00,
2013-07-06 20:09:00,75.9,66.8,30.00,SSW,202,0.0,0.0,73,0.00,,,0.00,WUHU21623XXSP,2013-07-07 01:09:00,
2013-07-06 20:14:00,75.9,66.6,30.00,SSW,202,0.0,0.0,73,0.00,,,0.00,WUHU21623XXSP,2013-07-07 01:14:00,
2013-07-06 20:19:00,75.7,66.8,30.00,SSW,202,0.0,0.0,74,0.00,,,0.00,WUHU21623XXSP,2013-07-07 01:19:00,
2013-07-06 20:24:00,75.6,67.1,30.00,South,180,4.7,4.7,75,0.00,,,0.00,WUHU21623XXSP,2013-07-07 01:24:00,
2013-07-06 20:30:00,75.4,67.3,30.00,South,180,4.7,4.7,76,0.00,,,0.00,WUHU21623XXSP,2013-07-07 01:30:00,
2013-07-06 20:35:00,75.0,67.0,30.01,SW,225,0.0,4.7,76,0.00,,,0.00,WUHU21623XXSP,2013-07-07 01:35:00,
2013-07-06 20:40:00,75.0,67.4,30.01,SSW,202,0.0,0.0,77,0.00,,,0.00,WUHU21623XXSP,2013-07-07 01:40:00,
2013-07-06 20:46:00,74.8,67.6,30.01,SW,225,0.0,0.0,78,0.00,,,0.00,WUHU21623XXSP,2013-07-07 01:46:00,
2013-07-06 20:51:00,74.5,67.6,30.01,WSW,247,0.0,3.6,79,0.00,,,0.00,WUHU21623XXSP,2013-07-07 01:51:00,
2013-07-06 20:56:00,74.3,68.0,30.01,South,180,4.5,8.9,80,0.00,,,0.00,WUHU21623XXSP,2013-07-07 01:56:00,
2013-07-06 21:02:00,74.1,67.6,30.02,South,180,0.0,8.9,80,0.00,,,0.00,WUHU21623XXSP,2013-07-07 02:02:00,
2013-07-06 21:07:00,74.1,67.6,30.02,SSW,202,0.0,0.0,80,0.00,,,0.00,WUHU21623XXSP,2013-07-07 02:07:00,
2013-07-06 21:12:00,73.9,67.8,30.02,SSW,202,0.0,0.0,81,0.00,,,0.00,WUHU21623XXSP,2013-07-07 02:12:00,
2013-07-06 21:17:00,73.8,68.0,30.02,WSW,247,0.0,0.0,82,0.00,,,0.00,WUHU21623XXSP,2013-07-07 02:17:00,
2013-07-06 21:23:00,73.6,67.4,30.02,SSW,202,0.0,2.9,81,0.00,,,0.00,WUHU21623XXSP,2013-07-07 02:23:00,
2013-07-06 21:28:00,73.4,67.4,30.02,South,180,0.0,2.9,81,0.00,,,0.00,WUHU21623XXSP,2013-07-07 02:28:00,
2013-07-06 21:33:00,73.2,67.4,30.03,SSE,157,2.7,3.1,82,0.00,,,0.00,WUHU21623XXSP,2013-07-07 02:33:00,
2013-07-06 21:38:00,73.2,67.4,30.02,SSW,202,0.0,3.1,82,0.00,,,0.00,WUHU21623XXSP,2013-07-07 02:38:00,
2013-07-06 21:44:00,73.0,67.2,30.03,SSW,202,0.0,2.0,82,0.00,,,0.00,WUHU21623XXSP,2013-07-07 02:44:00,
2013-07-06 21:49:00,73.0,67.2,30.03,SSW,202,0.0,3.6,82,0.00,,,0.00,WUHU21623XXSP,2013-07-07 02:49:00,
2013-07-06 21:54:00,72.9,67.1,30.03,SSE,157,6.9,6.9,82,0.00,,,0.00,WUHU21623XXSP,2013-07-07 02:54:00,
2013-07-06 22:00:00,72.7,67.2,30.03,South,180,0.0,6.9,83,0.00,,,0.00,WUHU21623XXSP,2013-07-07 03:00:00,
2013-07-06 22:05:00,72.5,67.0,30.03,South,180,0.0,6.9,83,0.00,,,0.00,WUHU21623XXSP,2013-07-07 03:05:00,
2013-07-06 22:11:00,72.3,67.2,30.03,South,180,0.0,0.0,84,0.00,,,0.00,WUHU21623XXSP,2013-07-07 03:11:00,
2013-07-06 22:16:00,72.3,67.2,30.04,South,180,0.0,0.0,84,0.00,,,0.00,WUHU21623XXSP,2013-07-07 03:16:00,
2013-07-06 22:22:00,72.1,67.0,30.04,South,180,0.0,0.0,84,0.00,,,0.00,WUHU21623XXSP,2013-07-07 03:22:00,
2013-07-06 22:27:00,72.1,67.4,30.04,South,180,0.0,0.0,85,0.00,,,0.00,WUHU21623XXSP,2013-07-07 03:27:00,
2013-07-06 22:33:00,72.0,67.2,30.04,South,180,0.0,0.0,85,0.00,,,0.00,WUHU21623XXSP,2013-07-07 03:33:00,
2013-07-06 22:38:00,71.8,67.0,30.04,SSE,157,0.0,4.7,86,0.00,,,0.00,WUHU21623XXSP,2013-07-07 03:38:00,
2013-07-06 22:43:00,71.4,67.0,30.04,SSE,157,2.0,2.0,86,0.00,,,0.00,WUHU21623XXSP,2013-07-07 03:43:00,
2013-07-06 22:48:00,71.2,67.2,30.04,SSE,157,0.0,2.0,87,0.00,,,0.00,WUHU21623XXSP,2013-07-07 03:48:00,
2013-07-06 22:53:00,71.2,67.2,30.04,SSE,157,0.0,0.0,87,0.00,,,0.00,WUHU21623XXSP,2013-07-07 03:53:00,
2013-07-06 22:58:00,71.2,67.2,30.04,SSE,157,0.0,0.0,87,0.00,,,0.00,WUHU21623XXSP,2013-07-07 03:58:00,
2013-07-06 23:01:00,70.9,66.8,30.04,SSE,157,1.1,1.1,87,0.00,,,0.00,WUHU21623XXSP,2013-07-07 04:01:00,
2013-07-06 23:06:00,70.9,66.8,30.04,SSE,157,0.0,1.1,87,0.00,,,0.00,WUHU21623XXSP,2013-07-07 04:06:00,
2013-07-06 23:11:00,70.7,66.6,30.04,SSE,157,0.0,0.0,87,0.00,,,0.00,WUHU21623XXSP,2013-07-07 04:11:00,
2013-07-06 23:16:00,70.5,66.6,30.04,SSE,157,0.0,0.0,87,0.00,,,0.00,WUHU21623XXSP,2013-07-07 04:16:00,
2013-07-06 23:21:00,70.5,66.4,30.04,SSE,157,0.0,0.0,87,0.00,,,0.00,WUHU21623XXSP,2013-07-07 04:21:00,
2013-07-06 23:27:00,70.5,66.4,30.04,SSE,157,0.0,0.0,87,0.00,,,0.00,WUHU21623XXSP,2013-07-07 04:27:00,
2013-07-06 23:32:00,70.3,66.3,30.04,SSE,157,0.0,0.0,87,0.00,,,0.00,WUHU21623XXSP,2013-07-07 04:32:00,
2013-07-06 23:37:00,70.3,66.3,30.04,SSE,157,2.9,2.9,87,0.00,,,0.00,WUHU21623XXSP,2013-07-07 04:37:00,
2013-07-06 23:42:00,70.3,66.3,30.03,SSE,157,2.2,2.9,87,0.00,,,0.00,WUHU21623XXSP,2013-07-07 04:42:00,
2013-07-06 23:47:00,70.3,66.3,30.04,SSE,157,0.0,2.2,87,0.00,,,0.00,WUHU21623XXSP,2013-07-07 04:47:00,
2013-07-06 23:52:00,70.3,66.3,30.04,SSE,157,2.9,3.1,87,0.00,,,0.00,WUHU21623XXSP,2013-07-07 04:52:00,
2013-07-06 23:57:00,70.3,66.3,30.04,SSE,157,0.0,3.1,87,0.00,,,0.00,WUHU21623XXSP,2013-07-07 04:57:00,